Date String (YYYY-MM-DD hh:mm:ss) UTC,Instrument flags,Ambient pressure (hPa),Sample flow (lpm),Bypass flow (lpm),Sample temperature (°C),Ambient temperature (°C),ASC tube jacket temperature (°C),LED temperature (°C),Box temperature (°C),Sample RH (%),Span deviation,Mass concentration (μg/m³),Mass concentration (μg/m³),Mass concentration (μg/m³)
DateTimeUTC,F1_M11,P_M11,Q1_M11,Q2_M11,T1_M11,T2_M11,T3_M11,T4_M11,T5_M11,U1_M11,ZSPAN_M11,X0_M11,X2_M11,X1_M11
2021-12-08 03:00:00,,0820.8,5.00,0.00,23.8,23.0,00.0,32.9,25.5,10.9,0000.0,0001.38,0000.57,0000.33
2021-12-08 03:01:00,,0820.8,4.99,0.00,23.8,23.0,00.0,32.9,25.5,11.0,0000.0,0001.27,0000.55,0000.34
2021-12-08 03:02:00,,0820.8,5.01,0.00,23.8,23.0,00.0,32.9,25.5,10.9,0000.0,0001.27,0000.55,0000.34
2021-12-08 03:03:00,,0820.8,5.00,0.00,23.8,23.0,00.0,32.9,25.5,11.0,0000.0,0001.23,0000.53,0000.33
2021-12-08 03:04:00,,0820.9,4.99,0.00,23.7,23.0,00.0,32.9,25.5,11.0,0000.0,0001.10,0000.52,0000.34
2021-12-08 03:05:00,,0820.7,5.00,0.00,23.7,22.9,00.0,32.9,25.5,11.0,0000.0,0001.34,0000.54,0000.34
2021-12-08 03:06:00,,0820.7,5.00,0.00,23.7,22.9,00.0,32.8,25.5,11.0,0000.0,0001.50,0000.55,0000.34
2021-12-08 03:07:00,,0820.7,4.99,0.00,23.7,22.9,00.0,32.8,25.5,11.1,0000.0,0001.55,0000.57,0000.34
2021-12-08 03:08:00,,0820.7,4.99,0.00,23.7,22.9,00.0,32.8,25.4,11.2,0000.0,0001.57,0000.58,0000.34
2021-12-08 03:09:00,,0820.8,5.01,0.00,23.7,22.9,00.0,32.8,25.4,11.2,0000.0,0001.63,0000.60,0000.34
2021-12-08 03:10:00,,0820.8,5.00,0.00,23.7,22.9,00.0,32.8,25.4,11.2,0000.0,0001.50,0000.59,0000.34
2021-12-08 03:11:00,,0820.8,5.01,0.00,23.7,22.9,00.0,32.8,25.4,11.1,0000.0,0001.65,0000.59,0000.35
2021-12-08 03:12:00,,0820.8,5.00,0.00,23.6,22.9,00.0,32.8,25.4,10.9,0000.0,0003.09,0000.82,0000.45
2021-12-08 03:13:00,,0820.8,4.99,0.00,23.6,22.9,00.0,32.7,25.4,10.9,0000.0,0004.11,0001.03,0000.59
2021-12-08 03:14:00,,0820.7,5.00,0.00,23.6,22.9,00.0,32.7,25.4,10.9,0000.0,0005.05,0001.28,0000.74
2021-12-08 03:15:00,,0820.7,5.00,0.00,23.6,22.9,00.0,32.7,25.4,11.0,0000.0,0007.65,0001.55,0000.88
2021-12-08 03:16:00,,0820.7,4.98,0.00,23.6,22.9,00.0,32.7,25.4,11.1,0000.0,0008.64,0001.96,0001.07
2021-12-08 03:17:00,,0820.6,5.01,0.00,23.6,22.9,00.0,32.7,25.4,11.1,0000.0,0008.96,0002.33,0001.26
2021-12-08 03:18:00,,0820.7,5.00,0.00,23.6,22.9,00.0,32.7,25.4,11.1,0000.0,0009.26,0002.56,0001.34
2021-12-08 03:19:00,,0820.7,5.00,0.00,23.6,22.9,00.0,32.7,25.4,11.1,0000.0,0010.64,0003.04,0001.55
2021-12-08 03:20:00,,0820.6,5.00,0.00,23.6,22.9,00.0,32.7,25.4,11.1,0000.0,0011.26,0003.27,0001.71
2021-12-08 03:21:00,,0820.6,4.99,0.00,23.7,22.9,00.0,32.7,25.4,11.1,0000.0,0011.64,0003.42,0001.84
2021-12-08 03:22:00,,0820.6,5.01,0.00,23.7,22.9,00.0,32.7,25.5,11.0,0000.0,0012.23,0003.62,0001.96
2021-12-08 03:23:00,,0820.6,4.99,0.00,23.7,23.0,00.0,32.7,25.5,11.0,0000.0,0012.77,0003.67,0002.00
2021-12-08 03:24:00,,0820.6,5.00,0.00,23.7,23.0,00.0,32.7,25.5,11.0,0000.0,0012.88,0003.68,0001.97
2021-12-08 03:25:00,,0820.6,5.01,0.00,23.7,23.0,00.0,32.7,25.5,11.0,0000.0,0012.82,0003.69,0001.95
2021-12-08 03:26:00,,0820.6,4.99,0.00,23.7,23.0,00.0,32.7,25.5,11.0,0000.0,0011.63,0003.69,0001.93
2021-12-08 03:27:00,,0820.6,5.01,0.00,23.7,23.0,00.0,32.7,25.5,11.0,0000.0,0010.94,0003.58,0001.86
2021-12-08 03:28:00,,0820.6,4.99,0.00,23.7,23.0,00.0,32.7,25.5,11.0,0000.0,0011.19,0003.55,0001.84
2021-12-08 03:29:00,,0820.6,5.01,0.00,23.7,23.1,00.0,32.7,25.5,11.0,0000.0,0012.09,0003.59,0001.92
2021-12-08 03:30:00,,0820.6,5.00,0.00,23.8,23.1,00.0,32.7,25.5,11.0,0000.0,0011.57,0003.49,0001.84
2021-12-08 03:31:00,,0820.6,5.01,0.00,23.8,23.1,00.0,32.7,25.5,10.9,0000.0,0011.89,0003.41,0001.79
2021-12-08 03:32:00,,0820.7,5.00,0.00,23.8,23.1,00.0,32.7,25.5,10.8,0000.0,0012.13,0003.32,0001.71
2021-12-08 03:33:00,,0820.7,5.00,0.00,23.7,23.0,00.0,32.7,25.5,10.8,0000.0,0011.85,0003.14,0001.60
2021-12-08 03:34:00,,0820.6,5.01,0.00,23.7,23.0,00.0,32.7,25.5,10.8,0000.0,0010.60,0002.97,0001.51
2021-12-08 03:35:00,,0820.6,5.01,0.00,23.7,23.0,00.0,32.7,25.5,10.7,0000.0,0009.99,0002.78,0001.41
2021-12-08 03:36:00,,0820.6,4.99,0.00,23.7,22.9,00.0,32.7,25.4,10.7,0000.0,0009.76,0002.60,0001.34
2021-12-08 03:37:00,,0820.6,5.01,0.00,23.7,22.9,00.0,32.7,25.4,10.7,0000.0,0009.48,0002.42,0001.23
2021-12-08 03:38:00,,0820.7,5.01,0.00,23.6,22.9,00.0,32.7,25.3,10.7,0000.0,0009.24,0002.37,0001.14
2021-12-08 03:39:00,,0820.7,4.98,0.00,23.6,22.8,00.0,32.7,25.3,10.8,0000.0,0008.58,0002.14,0001.01
2021-12-08 03:40:00,,0820.7,5.00,0.00,23.6,22.8,00.0,32.7,25.2,10.8,0000.0,0007.54,0001.96,0000.90
2021-12-08 03:41:00,,0820.7,5.01,0.00,23.5,22.8,00.0,32.7,25.2,10.9,0000.0,0007.41,0001.80,0000.83
2021-12-08 03:42:00,,0820.7,4.99,0.00,23.5,22.7,00.0,32.6,25.2,10.9,0000.0,0007.16,0001.69,0000.76
2021-12-08 03:43:00,,0820.8,5.00,0.00,23.5,22.7,00.0,32.6,25.2,11.0,0000.0,0006.32,0001.68,0000.75
2021-12-08 03:44:00,,0820.7,5.01,0.00,23.5,22.7,00.0,32.6,25.1,11.0,0000.0,0005.93,0001.73,0000.78
2021-12-08 03:45:00,,0820.7,5.00,0.00,23.4,22.6,00.0,32.6,25.1,11.1,0000.0,0005.77,0001.67,0000.77
2021-12-08 03:46:00,,0820.7,5.00,0.00,23.4,22.6,00.0,32.6,25.0,11.1,0000.0,0005.63,0001.63,0000.76
2021-12-08 03:47:00,,0820.7,4.99,0.00,23.4,22.6,00.0,32.5,25.0,11.1,0000.0,0006.15,0001.70,0000.79
2021-12-08 03:48:00,,0820.7,5.00,0.00,23.3,22.5,00.0,32.5,25.0,11.1,0000.0,0006.70,0001.93,0000.89
2021-12-08 03:49:00,,0820.7,5.01,0.00,23.3,22.5,00.0,32.5,25.0,11.1,0000.0,0006.99,0002.08,0000.98
2021-12-08 03:50:00,,0820.7,4.99,0.00,23.3,22.5,00.0,32.5,25.0,11.1,0000.0,0007.01,0002.09,0001.02
2021-12-08 03:51:00,,0820.6,4.99,0.00,23.3,22.5,00.0,32.5,25.0,11.1,0000.0,0007.57,0002.14,0001.07
2021-12-08 03:52:00,,0820.6,5.02,0.00,23.3,22.5,00.0,32.4,25.0,11.1,0000.0,0008.46,0002.22,0001.11
2021-12-08 03:53:00,,0820.6,4.98,0.00,23.3,22.5,00.0,32.4,25.0,11.1,0000.0,0009.34,0002.54,0001.22
2021-12-08 03:54:00,,0820.6,5.02,0.00,23.3,22.5,00.0,32.4,25.0,11.2,0000.0,0009.95,0002.93,0001.37
2021-12-08 03:55:00,,0820.6,4.99,0.00,23.3,22.5,00.0,32.4,25.0,11.2,0000.0,0010.37,0003.19,0001.49
2021-12-08 03:56:00,,0820.6,5.01,0.00,23.3,22.5,00.0,32.4,25.0,11.2,0000.0,0010.86,0003.37,0001.65
2021-12-08 03:57:00,,0820.6,4.99,0.00,23.3,22.5,00.0,32.4,25.0,11.2,0000.0,0011.17,0003.48,0001.76
2021-12-08 03:58:00,,0820.6,5.00,0.00,23.3,22.5,00.0,32.4,25.0,11.2,0000.0,0010.95,0003.44,0001.74
2021-12-08 03:59:00,,0820.6,5.01,0.00,23.2,22.5,00.0,32.4,24.9,11.1,0000.0,0010.67,0003.31,0001.66
